Location: Finnegan
(51.1333°N, 112.0833°W)
Time: 19:39:49
(UTC+00:00)

Envisat - Pass Details

Date: 06 December 2021
Orbit: 764 x 766 km, 98.2° (Epoch: 26 January)

Event Time Altitude Azimuth Distance (km) Brightness Sun altitude
Rises 12:36:16 0° 15° (NNE) 3,247 6.3 -24.0°
Reaches altitude 10° 12:38:35 10° 16° (NNE) 2,316 5.6 -23.7°
Maximum altitude 12:43:42 80° 104° (ESE) 784 3.0 -22.9°
Drops below altitude 10° 12:48:47 10° 192° (SSW) 2,298 5.4 -22.1°
Sets 12:51:04 0° 193° (SSW) 3,219 6.2 -21.7°
